Date String (YYYY-MM-DD hh:mm:ss) UTC,Instrument flags,Ambient pressure (hPa),Sample flow (lpm),Bypass flow (lpm),Sample temperature (°C),Ambient temperature (°C),ASC tube jacket temperature (°C),LED temperature (°C),Box temperature (°C),Sample RH (%),Span deviation,Mass concentration (μg/m³),Mass concentration (μg/m³),Mass concentration (μg/m³)
DateTimeUTC,F1_M11,P_M11,Q1_M11,Q2_M11,T1_M11,T2_M11,T3_M11,T4_M11,T5_M11,U1_M11,ZSPAN_M11,X0_M11,X2_M11,X1_M11
2022-04-02 16:00:00,,0825.6,5.00,0.00,25.2,24.3,00.0,34.0,27.1,12.8,0000.0,0009.95,0003.76,0003.19
2022-04-02 16:01:00,,0825.6,5.00,0.00,25.2,24.3,00.0,34.1,27.1,13.0,0000.0,0009.87,0003.77,0003.19
2022-04-02 16:02:00,,0825.6,5.01,0.00,25.2,24.3,00.0,34.1,27.1,13.3,0000.0,0009.89,0003.76,0003.19
2022-04-02 16:03:00,,0825.6,5.00,0.00,25.2,24.3,00.0,34.1,27.1,13.5,0000.0,0009.86,0003.76,0003.19
2022-04-02 16:04:00,,0825.5,5.00,0.00,25.2,24.3,00.0,34.1,27.1,13.2,0000.0,0010.00,0003.75,0003.19
2022-04-02 16:05:00,,0825.6,5.00,0.00,25.2,24.3,00.0,34.1,27.1,13.0,0000.0,0009.92,0003.72,0003.19
2022-04-02 16:06:00,,0825.6,5.00,0.00,25.3,24.3,00.0,34.1,27.1,13.1,0000.0,0009.46,0003.70,0003.18
2022-04-02 16:07:00,,0825.6,5.00,0.00,25.3,24.4,00.0,34.1,27.1,13.1,0000.0,0009.32,0003.69,0003.16
2022-04-02 16:08:00,,0825.6,5.00,0.00,25.3,24.4,00.0,34.1,27.1,13.1,0000.0,0008.36,0003.70,0003.16
2022-04-02 16:09:00,,0825.7,5.01,0.00,25.3,24.4,00.0,34.1,27.1,13.0,0000.0,0008.22,0003.69,0003.16
2022-04-02 16:10:00,,0825.7,5.01,0.00,25.3,24.4,00.0,34.2,27.2,12.9,0000.0,0008.10,0003.66,0003.16
2022-04-02 16:11:00,,0825.7,5.00,0.00,25.3,24.4,00.0,34.2,27.2,13.2,0000.0,0008.88,0003.64,0003.16
2022-04-02 16:12:00,,0825.7,5.00,0.00,25.3,24.4,00.0,34.2,27.2,13.0,0000.0,0008.91,0003.62,0003.16
2022-04-02 16:13:00,,0825.6,5.00,0.00,25.3,24.4,00.0,34.2,27.2,12.9,0000.0,0008.89,0003.63,0003.16
2022-04-02 16:14:00,,0825.6,5.01,0.00,25.3,24.4,00.0,34.2,27.2,12.8,0000.0,0008.85,0003.62,0003.17
2022-04-02 16:15:00,,0825.6,4.99,0.00,25.3,24.4,00.0,34.2,27.2,12.9,0000.0,0008.78,0003.62,0003.16
2022-04-02 16:16:00,,0825.6,5.00,0.00,25.3,24.4,00.0,34.2,27.2,12.9,0000.0,0008.20,0003.57,0003.15
2022-04-02 16:17:00,,0825.6,5.00,0.00,25.4,24.4,00.0,34.2,27.2,13.0,0000.0,0008.14,0003.56,0003.16
2022-04-02 16:18:00,,0825.6,4.99,0.00,25.4,24.4,00.0,34.2,27.2,12.9,0000.0,0007.87,0003.56,0003.17
2022-04-02 16:19:00,,0825.6,5.00,0.00,25.4,24.4,00.0,34.2,27.2,13.3,0000.0,0007.71,0003.54,0003.17
2022-04-02 16:20:00,,0825.6,5.00,0.00,25.4,24.4,00.0,34.3,27.2,12.8,0000.0,0007.74,0003.54,0003.18
2022-04-02 16:21:00,,0825.6,5.00,0.00,25.4,24.4,00.0,34.3,27.3,12.8,0000.0,0007.77,0003.54,0003.18
2022-04-02 16:22:00,,0825.7,5.01,0.00,25.4,24.4,00.0,34.3,27.2,12.9,0000.0,0007.73,0003.54,0003.17
2022-04-02 16:23:00,,0825.6,4.99,0.00,25.4,24.5,00.0,34.3,27.3,12.7,0000.0,0007.74,0003.55,0003.16
2022-04-02 16:24:00,,0825.6,5.00,0.00,25.4,24.5,00.0,34.3,27.3,12.6,0000.0,0007.69,0003.54,0003.17
2022-04-02 16:25:00,,0825.6,5.00,0.00,25.4,24.5,00.0,34.3,27.3,12.8,0000.0,0007.71,0003.54,0003.18
2022-04-02 16:26:00,,0825.5,5.00,0.00,25.4,24.5,00.0,34.3,27.3,12.8,0000.0,0007.72,0003.54,0003.18
2022-04-02 16:27:00,,0825.5,5.01,0.00,25.4,24.5,00.0,34.3,27.3,12.8,0000.0,0007.71,0003.55,0003.20
2022-04-02 16:28:00,,0825.6,5.01,0.00,25.4,24.5,00.0,34.3,27.3,13.2,0000.0,0007.70,0003.57,0003.21
2022-04-02 16:29:00,,0825.6,5.00,0.00,25.5,24.5,00.0,34.3,27.3,13.4,0000.0,0007.68,0003.57,0003.22
2022-04-02 16:30:00,,0825.7,5.00,0.00,25.5,24.5,00.0,34.3,27.3,13.2,0000.0,0007.58,0003.58,0003.24
2022-04-02 16:31:00,,0825.6,4.98,0.00,25.5,24.6,00.0,34.3,27.3,13.2,0000.0,0007.68,0003.60,0003.26
2022-04-02 16:32:00,,0825.5,5.01,0.00,25.5,24.6,00.0,34.3,27.3,13.6,0000.0,0008.30,0003.65,0003.28
2022-04-02 16:33:00,,0825.5,5.01,0.00,25.5,24.6,00.0,34.4,27.3,13.5,0000.0,0007.95,0003.69,0003.31
2022-04-02 16:34:00,,0825.6,5.00,0.00,25.5,24.6,00.0,34.4,27.4,13.4,0000.0,0007.87,0003.72,0003.34
2022-04-02 16:35:00,,0825.6,5.01,0.00,25.5,24.6,00.0,34.4,27.4,13.4,0000.0,0008.10,0003.76,0003.37
2022-04-02 16:36:00,,0825.6,5.00,0.00,25.5,24.6,00.0,34.4,27.4,13.4,0000.0,0008.54,0003.81,0003.38
2022-04-02 16:37:00,,0825.6,5.00,0.00,25.5,24.6,00.0,34.4,27.4,13.5,0000.0,0008.54,0003.82,0003.39
2022-04-02 16:38:00,,0825.6,5.00,0.00,25.5,24.6,00.0,34.4,27.4,13.3,0000.0,0008.57,0003.85,0003.42
2022-04-02 16:39:00,,0825.6,4.99,0.00,25.6,24.6,00.0,34.4,27.4,13.1,0000.0,0008.55,0003.86,0003.44
2022-04-02 16:40:00,,0825.5,5.00,0.00,25.6,24.6,00.0,34.4,27.4,13.0,0000.0,0008.59,0003.89,0003.45
2022-04-02 16:41:00,,0825.5,4.99,0.00,25.6,24.7,00.0,34.4,27.4,13.6,0000.0,0008.64,0003.93,0003.47
2022-04-02 16:42:00,,0825.5,4.99,0.00,25.6,24.7,00.0,34.4,27.4,13.4,0000.0,0008.45,0003.98,0003.49
2022-04-02 16:43:00,,0825.5,5.00,0.00,25.6,24.7,00.0,34.5,27.4,13.3,0000.0,0008.31,0004.00,0003.52
2022-04-02 16:44:00,,0825.5,5.00,0.00,25.6,24.6,00.0,34.5,27.4,13.3,0000.0,0008.37,0003.99,0003.54
2022-04-02 16:45:00,,0825.5,5.01,0.00,25.6,24.7,00.0,34.5,27.4,13.1,0000.0,0008.58,0004.02,0003.55
2022-04-02 16:46:00,,0825.6,4.99,0.00,25.6,24.7,00.0,34.5,27.4,13.5,0000.0,0008.60,0004.04,0003.56
2022-04-02 16:47:00,,0825.6,5.00,0.00,25.6,24.7,00.0,34.5,27.4,13.8,0000.0,0008.68,0004.04,0003.57
2022-04-02 16:48:00,,0825.5,5.01,0.00,25.6,24.7,00.0,34.5,27.5,13.5,0000.0,0009.09,0004.08,0003.59
2022-04-02 16:49:00,,0825.5,5.00,0.00,25.6,24.8,00.0,34.5,27.5,13.3,0000.0,0009.70,0004.12,0003.60
2022-04-02 16:50:00,,0825.5,4.99,0.00,25.7,24.8,00.0,34.5,27.5,12.7,0000.0,0010.80,0004.18,0003.61
2022-04-02 16:51:00,,0825.4,5.00,0.00,25.7,24.8,00.0,34.5,27.5,12.7,0000.0,0012.20,0004.22,0003.63
2022-04-02 16:52:00,,0825.4,4.99,0.00,25.7,24.8,00.0,34.5,27.5,12.7,0000.0,0012.17,0004.22,0003.65
2022-04-02 16:53:00,,0825.5,4.99,0.00,25.7,24.8,00.0,34.6,27.5,12.5,0000.0,0012.18,0004.21,0003.67
2022-04-02 16:54:00,,0825.5,5.00,0.00,25.7,24.8,00.0,34.6,27.5,12.5,0000.0,0011.97,0004.21,0003.67
2022-04-02 16:55:00,,0825.5,5.00,0.00,25.7,24.8,00.0,34.6,27.5,12.6,0000.0,0011.40,0004.21,0003.69
2022-04-02 16:56:00,,0825.5,5.00,0.00,25.7,24.9,00.0,34.6,27.6,12.9,0000.0,0011.95,0004.22,0003.70
2022-04-02 16:57:00,,0825.4,5.00,0.00,25.7,24.9,00.0,34.6,27.6,12.8,0000.0,0011.74,0004.19,0003.70
2022-04-02 16:58:00,,0825.3,5.00,0.00,25.7,24.9,00.0,34.6,27.6,12.9,0000.0,0011.24,0004.18,0003.72
2022-04-02 16:59:00,,0825.3,5.00,0.00,25.8,24.9,00.0,34.6,27.6,13.0,0000.0,0010.94,0004.22,0003.74
